Weather History for KASE - April, 2013

Change the Weather History Date:

Friday, April 26, 2013

  Actual Average Record
Temperature  
Mean Temperature 43 °F 43 °F  
Max Temperature 59 °F 56 °F 71 °F (2012)
Min Temperature 27 °F 30 °F 9 °F (1984)
Degree Days  
Heating Degree Days 22 22  
Month to date heating degree days 773 668  
Since 1 July heating degree days 7845 8043  
Cooling Degree Days 0 0  
Month to date cooling degree days 0 0  
Year to date cooling degree days 0 0  
Moisture  
Dew Point 14 °F    
Average Humidity 41    
Maximum Humidity 69    
Minimum Humidity 12    
Precipitation  
Precipitation 0.00 in 0.07 in 0.60 in (1985)
Month to date precipitation 2.40 1.56  
Year to date precipitation 4.61 5.12  
Sea Level Pressure  
Sea Level Pressure 30.06 in    
Wind  
Wind Speed 7 mph (WSW)    
Max Wind Speed 18 mph    
Max Gust Speed 26 mph    
Visibility 10 miles    
Events      
T = Trace of Precipitation, MM = Missing Value Source: NWS Daily Summary

Daily Weather History Graph

Daily Weather History Graph

Search for Another Location

Airport or City:

Trip Planner

Search our weather history database for the weather conditions in past years. The results will help you decide how hot, cold, wet, or windy it might be!

Date:

Astronomy

Apr. 26, 2013 Rise Set
Actual Time 6:14 AM MDT 7:56 PM MDT
Civil Twilight 5:46 AM MDT 8:24 PM MDT
Nautical Twilight 5:11 AM MDT 8:59 PM MDT
Astronomical Twilight 4:35 AM MDT 9:36 PM MDT
Moon 9:21 PM MDT (4/26) 6:45 AM MDT (4/26)
Length of Visible Light 14h 38m
Length of Day
13h 41m
Full, 99% of the Moon is Illuminated
Apr 26
Full
May 2
Last Quarter
May 9
New
May 17
First Quarter
May 24
Full

Hourly Weather History & Observations

Time (MDT) Temp. Windchill Dew Point Humidity Pressure Visibility Wind Dir Wind Speed Gust Speed Precip Events Conditions
1:53 AM 32.0 °F 24.8 °F 19.9 °F 61% 29.93 in 10.0 mi SSW 8.1 mph - N/A   Clear
2:53 AM 28.9 °F 21.9 °F 19.9 °F 69% 29.95 in 10.0 mi SSW 6.9 mph - N/A   Partly Cloudy
3:53 AM 30.0 °F - 19.0 °F 64% 29.97 in 10.0 mi Calm Calm - N/A   Overcast
4:53 AM 28.9 °F 22.8 °F 18.0 °F 64% 29.99 in 10.0 mi SSW 5.8 mph - N/A   Partly Cloudy
5:53 AM 28.0 °F 20.8 °F 18.0 °F 66% 30.03 in 10.0 mi SSW 6.9 mph - N/A   Clear
6:53 AM 28.9 °F 21.9 °F 17.1 °F 61% 30.05 in 10.0 mi SSW 6.9 mph - N/A   Clear
7:53 AM 37.0 °F 33.3 °F 15.1 °F 41% 30.07 in 10.0 mi Variable 4.6 mph - N/A   Clear
8:53 AM 42.1 °F - 16.0 °F 35% 30.07 in 10.0 mi Calm Calm - N/A   Clear
9:53 AM 46.9 °F - 12.0 °F 24% 30.05 in 10.0 mi Calm Calm - N/A   Clear
10:53 AM 52.0 °F - 8.1 °F 17% 30.05 in 10.0 mi Calm Calm - N/A   Clear
11:53 AM 54.0 °F - 10.0 °F 17% 30.06 in 10.0 mi Variable 5.8 mph 17.3 mph N/A   Clear
12:53 PM 55.9 °F - 12.9 °F 18% 30.05 in 10.0 mi NNW 10.4 mph 26.5 mph N/A   Scattered Clouds
1:53 PM 54.0 °F - 8.1 °F 16% 30.06 in 10.0 mi NNW 9.2 mph 16.1 mph N/A   Scattered Clouds
2:53 PM 55.9 °F - 8.1 °F 15% 30.06 in 10.0 mi NW 9.2 mph 23.0 mph N/A   Mostly Cloudy
3:53 PM 59.0 °F - 7.0 °F 13% 30.03 in 10.0 mi North 12.7 mph 21.9 mph N/A   Scattered Clouds
4:53 PM 55.9 °F - 6.1 °F 14% 30.04 in 10.0 mi NW 9.2 mph 19.6 mph N/A   Scattered Clouds
5:53 PM 55.9 °F - 10.0 °F 16% 30.07 in 10.0 mi WSW 11.5 mph 17.3 mph N/A   Scattered Clouds
6:53 PM 53.1 °F - 6.1 °F 15% 30.09 in 10.0 mi Variable 5.8 mph - N/A   Partly Cloudy
7:53 PM 48.9 °F - 12.9 °F 24% 30.09 in 10.0 mi West 4.6 mph - N/A   Clear
8:53 PM 42.1 °F 37.7 °F 18.0 °F 38% 30.13 in 10.0 mi SSW 6.9 mph - N/A   Mostly Cloudy
9:53 PM 39.9 °F 35.1 °F 18.0 °F 41% 30.14 in 10.0 mi WSW 6.9 mph - N/A   Clear
10:53 PM 37.0 °F 31.0 °F 19.0 °F 48% 30.15 in 10.0 mi SSW 8.1 mph - N/A   Clear
11:53 PM 34.0 °F 26.6 °F 19.0 °F 54% 30.17 in 10.0 mi SSW 9.2 mph - N/A   Clear